Wind_Speed
51 48 47 46 45 46 49 50 55 57 59 63 60 61 63 61 63 68 72 76 77 76 75 74 76 79 85 88 88 82 79 74 67 61 60 57 53 49 47 47 46 43 48 49 50 55 57
56 51 47 46 46 43 44 48 49 50 53 55 58 57 58 59 60 63 66 70 75 75 73 74 80 87 85 80 77 78 79 75 71 66 64 60 58 54 53 50 49 47 45 48 51 53 56
60 55 47 42 41 39 38 39 42 44 44 49 52 51 54 56 57 60 64 66 66 72 75 79 80 77 74 75 75 76 76 75 73 68 66 61 59 59 56 56 52 51 48 50 53 58 58
65 58 47 43 39 37 37 37 35 37 37 40 47 48 52 54 56 59 61 60 63 67 72 72 72 72 73 75 75 74 75 75 72 69 67 63 61 60 61 63 59 59 56 58 59 58 58
71 64 54 43 41 38 37 35 36 34 36 36 40 44 51 54 57 60 57 57 58 59 62 66 70 72 73 73 73 74 75 74 73 72 69 64 64 63 62 66 65 65 61 60 60 62 60
76 67 57 49 41 40 40 40 37 35 36 36 37 42 49 54 59 59 56 54 50 51 60 68 70 73 71 73 73 73 73 73 73 72 71 68 66 65 64 70 71 70 65 62 62 63 63
78 72 63 54 54 53 48 48 48 47 40 39 39 39 45 55 58 59 54 51 46 48 62 68 70 72 71 72 74 74 73 73 73 71 74 71 68 70 73 78 77 76 70 69 67 67 67
84 75 67 60 57 61 67 64 60 59 56 49 45 43 41 50 58 58 53 49 47 48 59 65 71 72 71 71 71 72 73 72 73 74 73 73 74 76 78 78 79 79 75 74 69 72 71
89 82 75 69 65 69 74 74 73 71 72 65 55 51 48 46 58 57 55 51 46 42 53 64 68 71 72 70 70 72 73 71 71 72 75 80 78 80 81 80 83 85 85 83 77 76 69
95 88 85 76 74 77 72 66 61 58 60 68 63 61 57 51 53 57 57 53 50 42 42 59 66 69 71 71 70 72 70 71 73 80 80 78 81 83 84 83 83 83 86 88 86 80 73
100 93 90 83 80 73 64 56 50 47 47 55 60 64 67 57 51 53 62 59 54 47 40 42 51 66 67 69 71 73 73 73 73 75 75 74 74 77 76 80 81 81 87 90 90 85 78
104 98 94 85 81 70 60 52 45 43 38 43 50 55 68 63 55 55 68 62 53 50 40 37 39 48 56 63 67 70 70 69 70 68 65 64 64 66 71 78 81 83 84 85 83 82 71
108 101 97 89 80 68 59 50 40 36 34 36 41 46 58 69 59 59 63 64 58 51 45 41 40 39 39 41 46 50 52 52 54 55 56 61 67 70 76 82 82 75 73 75 74 70 56
110 102 98 93 80 67 58 46 35 28 26 33 35 41 50 67 64 62 57 60 57 53 49 46 45 43 42 41 44 46 46 49 53 57 62 65 68 77 78 72 67 64 70 68 69 65 61
112 103 99 93 79 69 58 44 30 21 22 26 30 37 45 62 68 60 57 53 56 58 54 52 49 47 44 44 45 46 48 52 56 60 63 70 73 67 63 64 67 70 69 73 70 68 70
112 104 97 92 79 69 57 44 28 19 18 22 28 34 43 58 63 64 57 51 53 57 58 55 52 46 46 46 47 46 49 54 58 62 68 62 59 63 67 68 71 70 73 76 74 74 72
112 103 96 89 77 67 54 41 23 14 16 20 27 33 40 54 65 63 55 51 50 51 48 45 45 46 47 45 44 46 51 55 58 58 56 59 63 65 66 61 56 50 52 53 57 62 61
112 103 95 87 74 64 50 35 18 10 15 21 26 33 39 50 58 59 57 56 52 47 45 37 36 39 39 37 41 43 46 52 48 51 50 47 37 36 40 41 41 44 43 43 48 46 42
111 101 94 86 72 60 46 30 14 7 15 20 25 31 38 46 50 58 63 58 53 49 42 37 36 35 34 39 37 39 43 37 34 24 11 10 11 14 19 19 20 27 31 28 27 25 29
109 99 91 83 69 57 41 26 10 4 14 21 23 27 33 37 46 58 63 60 54 49 41 38 36 34 37 33 33 35 30 26 26 21 6 20 22 25 18 19 14 9 6 4 4 8 12
108 98 89 81 66 54 37 23 9 6 12 17 19 20 25 31 37 44 56 58 53 47 43 40 38 37 35 30 29 17 17 20 17 15 18 25 28 30 31 27 20 20 21 23 19 14 5
104 95 88 78 64 51 34 19 9 4 9 17 21 24 29 29 29 35 49 56 56 54 49 44 41 38 33 27 19 14 17 19 14 21 22 27 28 21 24 25 27 20 20 22 22 23 24
103 93 87 76 62 48 32 15 6 2 9 17 21 25 25 26 27 37 47 56 57 55 51 47 44 37 29 23 15 17 21 21 18 20 27 24 26 19 18 22 22 17 21 22 19 22 30
101 90 84 73 59 45 29 13 2 3 10 16 24 28 29 30 34 38 41 45 51 54 54 48 40 33 28 19 17 19 24 25 16 27 29 21 24 21 17 14 17 16 11 13 15 19 21
97 87 81 69 57 43 28 12 2 5 9 15 19 23 25 25 26 33 37 44 47 48 48 42 34 33 26 22 18 20 28 32 16 27 28 26 24 22 23 18 16 11 10 13 9 10 22
93 84 76 66 54 41 26 11 3 6 8 10 17 21 22 24 31 37 42 44 47 47 43 38 37 31 27 25 21 22 31 25 25 36 33 28 25 25 25 21 24 17 24 22 15 24 11
87 78 73 62 52 39 27 14 5 6 10 15 19 25 32 36 39 44 47 49 48 45 43 38 30 27 25 25 23 25 28 29 18 22 33 27 28 26 23 22 24 17 19 23 19 24 16
83 73 69 59 49 38 27 15 7 9 11 16 23 31 37 42 45 49 52 52 49 46 38 31 28 24 23 24 25 29 29 36 29 22 25 22 25 28 25 19 20 22 19 17 15 12 7
78 71 66 56 46 36 26 15 8 12 13 19 27 36 42 47 50 52 53 51 46 42 34 27 28 27 24 20 20 21 23 27 24 25 28 25 30 25 26 23 17 24 25 23 16 15 9
Wind_Direction
338 328 319 308 293 284 276 273 270 266 261 257 256 253 251 249 248 244 241 238 236 238 241 244 246 248 249 248 248 251 250 247 248 251 256 261 259 262 260 258 261 259 257 254 255 256 255
341 335 323 311 301 290 283 278 274 269 266 262 258 252 249 247 245 240 237 236 235 236 241 244 246 249 247 241 240 240 244 246 248 250 254 258 261 263 263 264 263 259 259 258 255 257 256
345 339 326 311 299 290 283 282 278 273 269 263 259 252 247 242 239 236 234 237 240 239 241 246 247 240 234 232 233 236 240 245 248 250 253 256 255 258 259 263 262 263 263 260 259 257 256
348 342 327 316 304 289 286 281 282 278 273 266 263 251 247 241 234 232 234 238 242 242 246 243 235 229 227 230 232 234 238 243 247 250 252 253 254 257 258 262 264 265 267 265 259 258 259
348 344 331 316 307 298 288 280 277 277 277 270 267 259 242 239 232 233 236 241 244 246 240 231 224 223 225 229 232 235 238 242 246 250 253 253 255 256 258 260 260 263 264 267 263 260 259
349 344 334 319 306 295 292 286 275 269 270 271 263 258 247 236 232 233 238 241 247 243 233 224 221 222 225 228 232 236 239 242 245 249 254 255 257 258 259 255 256 262 267 267 266 261 259
349 344 336 323 315 307 296 286 280 271 263 260 260 256 251 241 231 235 237 242 247 242 227 224 221 224 227 228 231 235 239 242 246 250 254 256 259 259 257 257 258 262 267 268 266 260 260
349 345 337 325 314 310 302 290 279 271 264 257 255 252 249 243 235 230 234 238 242 238 229 226 222 225 227 230 233 237 241 243 247 251 255 258 258 258 259 263 264 266 268 265 263 261 261
349 345 338 328 320 311 302 295 287 275 269 257 246 247 243 241 236 228 231 231 237 239 232 227 227 227 228 230 235 240 244 247 249 252 255 255 258 263 264 264 267 268 268 269 267 264 262
348 345 340 333 324 317 309 301 291 281 268 261 248 239 238 234 234 228 226 227 231 234 234 231 229 230 232 235 235 238 242 246 249 249 254 257 262 261 263 266 266 267 270 268 268 264 261
347 345 342 336 329 323 313 304 295 282 268 257 252 234 232 226 229 226 225 223 225 228 229 235 236 232 236 238 241 246 247 250 252 256 258 260 262 265 266 266 268 267 267 266 264 263 258
347 346 343 339 333 326 318 310 299 286 275 258 250 239 228 222 222 219 224 223 221 226 227 229 235 236 239 243 242 245 249 254 258 258 260 265 269 270 270 272 273 271 267 264 262 259 256
347 346 343 340 336 330 323 315 303 286 270 252 243 237 227 221 215 219 221 221 219 221 223 224 228 232 234 237 242 246 250 253 258 264 270 271 272 271 271 273 275 271 268 265 263 263 258
347 346 344 341 338 332 327 318 305 285 264 253 239 226 223 218 214 217 217 219 220 217 222 225 228 232 237 242 247 251 257 262 265 268 270 272 275 277 276 274 273 273 270 269 267 262 253
347 346 344 341 339 334 331 324 309 283 252 243 233 221 216 214 213 211 214 213 218 217 221 224 228 232 239 245 251 257 263 267 269 274 278 277 278 277 276 276 276 274 271 266 265 259 252
347 346 345 342 339 335 335 331 321 294 241 222 226 215 212 212 211 207 209 206 210 217 221 223 225 231 238 246 253 261 268 272 277 280 280 282 280 278 276 276 275 274 272 270 267 263 259
348 346 346 343 339 337 337 335 322 296 233 204 214 208 209 210 211 202 203 204 206 211 217 221 226 231 238 246 255 264 272 280 282 284 285 286 282 280 279 280 281 276 270 267 265 264 262
347 346 346 344 341 339 341 334 318 296 226 188 205 202 205 208 211 199 201 204 206 207 211 212 220 227 238 249 259 269 277 283 285 292 290 291 293 288 291 289 286 283 277 270 266 265 262
346 345 347 345 342 341 343 328 320 304 214 184 198 198 203 207 211 199 204 206 206 208 207 212 220 231 242 251 266 275 280 282 291 289 272 299 303 307 282 283 285 279 279 272 264 255 244
344 344 347 345 343 342 341 323 321 295 202 177 194 198 201 204 209 206 202 207 206 208 210 216 224 233 242 256 268 273 279 289 275 259 195 100 78 65 64 50 32 7 326 10 308 249 219
344 344 346 346 344 343 340 325 12 325 204 180 183 196 194 204 206 202 205 210 212 208 213 217 224 233 244 256 262 270 275 254 262 167 132 109 97 87 83 64 53 44 29 44 49 47 73
343 344 346 346 344 345 341 333 24 311 221 184 178 189 197 200 189 196 203 208 210 213 215 219 226 234 240 250 235 236 253 258 217 163 134 117 103 105 95 96 83 68 71 85 96 118 135
342 344 345 346 344 345 342 339 30 236 187 169 174 184 194 189 188 196 199 206 209 211 213 218 223 230 236 214 207 215 237 239 189 168 135 140 128 118 109 89 73 62 82 72 107 116 128
340 342 344 345 343 344 342 332 1 186 190 183 183 188 191 190 188 193 198 199 202 203 207 213 217 220 203 191 194 208 227 211 200 153 139 137 136 122 109 114 101 70 58 74 73 105 113
339 341 343 344 342 343 340 334 341 189 190 187 188 194 193 183 181 182 187 189 187 190 197 205 204 195 184 182 174 187 209 214 185 159 147 139 130 130 119 107 79 91 111 83 73 89 115
338 339 342 343 341 341 337 321 273 171 182 188 196 192 182 181 184 180 176 175 177 183 189 187 186 181 182 171 174 182 193 214 177 162 157 155 144 142 142 140 124 142 124 103 110 121 129
336 338 340 342 339 338 335 325 274 183 172 188 194 183 180 181 178 170 167 169 174 174 174 175 179 178 179 171 168 190 197 207 213 194 179 176 158 159 162 151 148 163 153 152 151 164 185
335 338 339 339 336 335 331 318 250 188 178 187 189 186 181 179 174 170 166 167 165 166 168 171 177 176 185 168 169 173 186 198 209 226 214 199 178 170 171 171 176 172 176 186 184 187 202
333 336 338 337 335 330 322 307 235 197 184 191 188 184 182 175 173 167 164 163 162 164 164 173 178 176 184 182 176 174 182 191 202 201 217 214 194 188 190 191 192 201 200 202 217 273 275
Height
10535 10526 10520 10514 10507 10502 10498 10497 10495 10495 10495 10494 10496 10498 10501 10505 10510 10516 10522 10531 10541 10550 10557 10566 10574 10579 10585 10591 10596 10606 10612 10617 10623 10628 10633 10635 10639 10645 10646 10647 10649 10655 10651 10651 10651 10651 10654
10524 10514 10506 10500 10493 10489 10484 10481 10479 10477 10477 10477 10479 10482 10485 10489 10494 10499 10507 10515 10525 10534 10542 10550 10556 10562 10567 10575 10585 10586 10594 10605 10611 10615 10619 10624 10627 10633 10634 10634 10638 10642 10641 10641 10641 10638 10640
10516 10503 10495 10489 10482 10476 10472 10468 10464 10462 10461 10462 10462 10466 10470 10474 10479 10485 10492 10501 10510 10519 10527 10533 10537 10543 10551 10561 10568 10575 10583 10589 10596 10602 10606 10611 10615 10618 10621 10620 10625 10626 10630 10630 10628 10625 10628
10505 10495 10485 10476 10470 10466 10461 10458 10453 10450 10448 10449 10450 10453 10456 10460 10466 10472 10479 10488 10496 10504 10509 10513 10520 10528 10538 10546 10554 10563 10570 10576 10582 10588 10594 10600 10603 10604 10608 10608 10611 10612 10616 10613 10613 10615 10617
10495 10485 10476 10467 10458 10454 10450 10445 10442 10439 10437 10436 10437 10439 10444 10447 10453 10460 10467 10474 10482 10487 10490 10498 10507 10515 10525 10534 10542 10551 10557 10564 10569 10573 10580 10587 10589 10592 10596 10595 10594 10594 10601 10603 10603 10603 10605
10484 10474 10463 10455 10450 10443 10437 10433 10429 10426 10425 10424 10424 10425 10430 10434 10440 10446 10454 10462 10468 10471 10477 10485 10493 10502 10516 10523 10530 10538 10545 10551 10557 10561 10566 10572 10577 10580 10581 10572 10576 10579 10588 10590 10591 10589 10593
10474 10461 10450 10439 10430 10424 10424 10419 10414 10410 10410 10410 10411 10411 10414 10420 10426 10433 10443 10450 10455 10460 10465 10474 10485 10493 10503 10512 10518 10525 10533 10538 10544 10551 10550 10555 10563 10564 10556 10554 10561 10566 10571 10574 10576 10574 10575
10463 10450 10438 10428 10419 10409 10397 10394 10392 10390 10390 10392 10394 10398 10400 10406 10412 10420 10431 10439 10442 10448 10455 10465 10475 10481 10491 10500 10509 10514 10518 10526 10533 10536 10538 10543 10545 10539 10541 10545 10546 10548 10553 10556 10557 10554 10560
10448 10435 10423 10409 10401 10391 10378 10366 10360 10359 10357 10365 10375 10380 10385 10391 10396 10408 10416 10425 10433 10439 10446 10455 10464 10471 10478 10490 10498 10501 10506 10514 10518 10523 10522 10526 10528 10528 10530 10528 10529 10531 10532 10533 10537 10536 10546
10429 10415 10400 10389 10378 10365 10350 10338 10331 10329 10331 10333 10348 10358 10366 10372 10379 10397 10403 10414 10420 10430 10438 10445 10454 10462 10471 10478 10485 10487 10494 10499 10505 10505 10508 10515 10512 10513 10514 10515 10508 10512 10510 10509 10514 10518 10527
10413 10398 10382 10369 10355 10341 10325 10315 10308 10305 10307 10309 10316 10332 10342 10353 10367 10383 10390 10398 10410 10419 10431 10438 10447 10455 10461 10468 10474 10477 10483 10488 10493 10493 10495 10499 10498 10494 10498 10492 10489 10495 10489 10487 10491 10495 10503
10399 10381 10364 10350 10335 10319 10305 10297 10290 10286 10288 10291 10296 10309 10320 10338 10354 10366 10370 10387 10403 10411 10425 10432 10438 10445 10453 10458 10464 10468 10470 10475 10477 10479 10482 10483 10484 10482 10477 10468 10466 10463 10463 10461 10463 10468 10486
10383 10366 10348 10331 10316 10302 10289 10279 10273 10271 10273 10275 10280 10290 10305 10320 10341 10348 10361 10377 10389 10405 10417 10425 10431 10438 10445 10450 10454 10457 10462 10464 10465 10467 10469 10468 10464 10461 10455 10448 10441 10438 10436 10435 10440 10448 10472
10372 10353 10334 10317 10301 10286 10275 10264 10257 10256 10258 10263 10269 10278 10291 10308 10325 10336 10356 10367 10384 10398 10407 10416 10423 10430 10436 10443 10446 10449 10453 10456 10456 10454 10453 10453 10451 10437 10434 10426 10422 10423 10415 10417 10418 10428 10439
10363 10343 10325 10306 10290 10273 10262 10252 10244 10242 10245 10252 10259 10269 10282 10295 10310 10329 10345 10362 10380 10387 10397 10407 10415 10423 10430 10433 10437 10441 10444 10444 10442 10442 10441 10433 10426 10420 10413 10406 10401 10398 10397 10392 10395 10402 10407
10355 10335 10319 10299 10279 10264 10252 10242 10236 10234 10236 10242 10253 10262 10272 10284 10302 10319 10338 10356 10365 10376 10385 10397 10408 10417 10422 10426 10429 10434 10434 10431 10430 10428 10418 10414 10408 10400 10393 10388 10382 10380 10376 10372 10371 10371 10378
10348 10329 10312 10293 10273 10258 10246 10237 10231 10229 10231 10236 10247 10255 10265 10276 10289 10311 10334 10347 10356 10367 10380 10393 10403 10409 10414 10419 10424 10425 10423 10422 10419 10412 10404 10397 10388 10382 10373 10368 10364 10360 10354 10353 10350 10349 10354
10341 10323 10306 10288 10270 10255 10243 10234 10229 10228 10229 10233 10242 10251 10262 10271 10283 10310 10326 10337 10348 10362 10373 10387 10396 10402 10408 10414 10414 10417 10418 10412 10405 10400 10389 10379 10372 10365 10360 10354 10349 10343 10340 10338 10333 10334 10341
10335 10319 10303 10284 10268 10253 10242 10235 10229 10228 10229 10231 10239 10249 10257 10269 10280 10305 10316 10328 10343 10356 10369 10381 10389 10396 10402 10403 10408 10410 10407 10405 10398 10391 10384 10379 10370 10363 10356 10350 10344 10337 10331 10327 10324 10325 10326
10333 10315 10300 10283 10266 10252 10243 10236 10229 10230 10230 10232 10240 10249 10257 10267 10279 10293 10308 10323 10337 10351 10365 10376 10384 10389 10392 10399 10404 10403 10402 10398 10391 10387 10382 10377 10371 10367 10359 10350 10342 10336 10331 10324 10322 10321 10322
10327 10311 10295 10282 10267 10254 10245 10237 10231 10234 10236 10236 10241 10249 10260 10269 10279 10292 10308 10324 10337 10351 10360 10371 10377 10382 10389 10396 10398 10398 10396 10393 10388 10384 10381 10376 10372 10369 10364 10359 10353 10342 10335 10326 10324 10325 10327
10324 10310 10293 10281 10267 10256 10246 10240 10236 10237 10239 10240 10245 10250 10257 10265 10277 10292 10306 10318 10330 10343 10354 10363 10371 10378 10387 10392 10393 10394 10391 10391 10387 10384 10383 10378 10376 10376 10372 10364 10360 10355 10349 10344 10343 10343 10344
10319 10308 10291 10280 10266 10256 10249 10243 10240 10240 10242 10244 10248 10252 10259 10268 10278 10287 10297 10310 10324 10337 10348 10357 10366 10376 10383 10386 10388 10390 10389 10391 10391 10387 10384 10382 10380 10379 10379 10376 10373 10369 10367 10362 10362 10361 10361
10316 10305 10290 10280 10267 10257 10251 10247 10243 10243 10244 10245 10250 10254 10260 10267 10274 10283 10294 10305 10316 10329 10342 10352 10363 10372 10378 10382 10385 10386 10387 10390 10390 10387 10385 10385 10386 10383 10383 10385 10383 10381 10380 10378 10377 10379 10380
10314 10303 10290 10279 10267 10257 10251 10248 10246 10246 10246 10248 10252 10257 10262 10269 10277 10284 10292 10302 10313 10327 10339 10350 10360 10369 10373 10378 10380 10382 10387 10388 10388 10388 10389 10389 10391 10389 10388 10389 10391 10390 10391 10391 10389 10391 10394
10313 10299 10289 10277 10268 10259 10254 10250 10250 10249 10248 10251 10254 10258 10265 10271 10277 10285 10293 10304 10315 10326 10337 10348 10357 10363 10368 10372 10375 10379 10386 10389 10390 10389 10390 10393 10393 10393 10393 10394 10395 10394 10395 10400 10399 10402 10400
10313 10299 10285 10276 10266 10259 10254 10251 10250 10250 10251 10254 10258 10261 10268 10273 10278 10285 10294 10304 10315 10327 10338 10349 10355 10360 10366 10370 10374 10381 10386 10389 10392 10391 10393 10395 10395 10397 10397 10398 10400 10402 10402 10403 10404 10406 10407
10309 10298 10284 10273 10265 10257 10252 10252 10251 10251 10253 10256 10261 10265 10269 10274 10279 10287 10296 10307 10319 10331 10339 10346 10354 10360 10366 10368 10372 10378 10383 10388 10391 10394 10395 10397 10397 10398 10401 10404 10405 10406 10407 10409 10409 10410 10412
10308 10294 10282 10270 10263 10255 10250 10250 10250 10250 10252 10257 10261 10266 10270 10275 10282 10291 10302 10314 10324 10332 10338 10346 10352 10358 10363 10366 10371 10375 10381 10385 10388 10389 10394 10397 10398 10401 10403 10406 10408 10409 10409 10409 10410 10412 10415